Emanuel Abdala fue el más rápido en la primera tanda de entrenamientos de la Clase 2 del Turismo Nacional, en el marco de la sexta fecha de la temporada. El piloto de Comodoro Rivadavia marcó un tiempo de 1:53.558 para ser la referencia inicial con el Ford Fiesta Kinetic que atiende el Ale Bucci Racing.

En el Autódromo Ciudad de Concordia, el segundo lugar quedó en manos de Renzo Blotta, a 20 centésimas; mientras que Gerónimo Núñez finalizó en el tercer puesto, a 21 centésimas de la punta.

Por su parte, las diez primeras posiciones las completaron Sebastián Salse, Damián Kirstein, Fernando Gómez Fredes, Christian Bodrato Mionetto, Lucas Tedeschi, Nicolás Bulich y Diego Leanez.

    1er. Entrenamiento TN Clase 2 – Concordia    

Pos. Piloto Marca Vtas. Tiempo Dif.
1 2 EMANUEL ABDALA FIESTA KINETIC 6 1:53.558
2 89 RENZO BLOTTA TOYOTA ETIOS 6 1:53.758 0.200
3 3 GERONIMO NUÑEZ TOYOTA ETIOS 5 1:53.777 0.219
4 155 SEBASTIAN SALSE TOYOTA ETIOS 10 1:53.896 0.338
5 23 DAMIAN KIRSTEIN PEUGEOT 208 10 1:53.966 0.408
6 21 FERNANDO GOMEZ FREDES TOYOTA ETIOS 11 1:53.977 0.419
7 113 CHRISTIAN BODRATO MIONETTO TOYOTA ETIOS 7 1:53.985 0.427
8 4 LUCAS TEDESCHI TOYOTA ETIOS 6 1:54.070 0.512
9 163 NICOLAS BULICH FIESTA KINETIC 6 1:54.142 0.584
10 16 DIEGO LEANEZ TOYOTA ETIOS 11 1:54.311 0.753
11 79 MARCO VERONESI TOYOTA ETIOS 10 1:54.374 0.816
12 84 LUCAS YEROBI FIESTA KINETIC 5 1:54.394 0.836
13 199 JUAN IGNACIO TORRES CHEVROLET CORSA 11 1:54.540 0.982
14 28 MATEO NUÑEZ NISSAN MARCH 9 1:54.544 0.986
15 8 SEBASTIAN PEREZ CHEVROLET ONIX 6 1:54.587 1.029
16 37 GABRIEL SCORDIA FIAT ARGO 10 1:54.648 1.090
17 80 JUAN IGNACIO CANELA VW TREND 3 1:54.697 1.139
18 61 FACUNDO BUSTOS VW TREND 4 1:54.990 1.432
19 12 MAXIMILIANO BESTANI FIESTA KINETIC 5 1:54.998 1.440
20 10 ALEJO BORGIANI VW TREND 7 1:55.002 1.444
21 15 MIGUEL CIAURRO VW TREND 6 1:55.029 1.471
22 98 ALEX CONCI FIESTA KINETIC 7 1:55.254 1.696
23 55 MARCELO GUEVARA FIAT ARGO 5 1:55.267 1.709
24 30 VALDERREY ALEJANDRO TOYOTA ETIOS 9 1:55.574 2.016
25 121 NAZARENO BEGUIRISTAIN TOYOTA ETIOS 9 1:55.605 2.047
26 114 PABLO ORTEGA FIAT ARGO 3 1:55.637 2.079
27 7 FACUNDO LEANEZ TOYOTA ETIOS 7 1:55.990 2.432
28 26 AGUSTIN BONOMO DS3 6 1:56.127 2.569
29 82 JUAN PABLO AQUILES VW TREND 8 1:56.609 3.051
30 116 ALEJANDRO TORRISI NISSAN MARCH 6 1:56.968 3.410
31 48 RICARDO SALE RENAULT CLIO 5 1:57.268 3.710
32 14 IGNACIO PROCACITTO VW TREND 2 1:58.332 4.774
Sin Tiempo Auto Nro. 154 (Rotondo F)

S.B